[[{"header":{"parameterUnit":"m.s-1","parameterCategory":2,"la1":30.2991,"la2":30.254,"lo1":-89.0895,"lo2":-89.0444,"dy":0.0017,"dx":0.0017,"nx":28,"ny":28,"refTime":"2025-04-19T21:00:00:Z","depth":"0","parameterNumber":2,"parameterNumberName":"U-component_of_CURRENTS"},"data":[0,0,0,0,0,0,0,0,0,0,0,0,0,0,0,0,0,0,0,0,0,0,0,0,0,0,0,0,0,0,0,0,0,0,0,0,0,0,0,0,0,0,0,0,0,0,0,0,0,0,0,0,0,0,0,0,0,0,0.2421,0.2421,0,0.241,0.2409,0.2409,0.2374,0.2374,0.2373,0.2373,0.2325,0.2324,0.2323,0,0,0,0,0,0,0,0,0,0,0,0,0,0.2432,0.2432,0.2421,0.2421,0.2421,0.241,0.2409,0.2409,0.2374,0.2374,0.2373,0.2372,0.2325,0.2324,0.2323,0,0,0,0,0,0,0,0,0,0,0,0,0,0.2422,0.2432,0.2421,0.2404,0.2403,0.241,0.2409,0.2409,0.2374,0.2374,0.2373,0.2372,0.2325,0.2324,0.2323,0.2332,0,0,0.2319,0.2319,0,0,0,0,0,0,0,0,0.2423,0.2422,0.2407,0.2405,0.2404,0.2395,0.2396,0.2382,0.2375,0.2383,0.2373,0.2372,0.2347,0.2344,0.234,0.233,0.2327,0.2319,0.2318,0.2318,0.2318,0,0,0,0,0,0,0,0.2424,0.2422,0.2414,0.2407,0.2405,0.2404,0.2402,0.2393,0.2367,0.2382,0.238,0.2383,0.2345,0.2342,0.2339,0.2327,0.2319,0.2318,0.2317,0.2317,0.2355,0.2356,0,0,0,0,0,0,0.243,0.2423,0.2414,0.2414,0.2414,0.2405,0.2402,0.2396,0.2368,0.2363,0.2384,0.2381,0.2344,0.234,0.2337,0.2368,0.2318,0.2317,0.2316,0.2353,0.2355,0.2357,0,0,0,0,0,0,0.243,0.2429,0.2415,0.242,0.2419,0.2406,0.24,0.2397,0.2397,0.237,0.2364,0.2389,0.2343,0.2339,0.2344,0.2365,0.2316,0.2315,0.2351,0.2354,0.2356,0.2416,0,0,0,0,0,0,0.243,0.2429,0.2427,0.2421,0.2419,0.2427,0.2401,0.2397,0.2401,0.2398,0.2372,0.2367,0.2342,0.2346,0.2342,0.2363,0.2314,0.2349,0.2352,0.2355,0.2412,0.2421,0.2428,0,0,0,0,0,0.243,0.2429,0.2427,0.2426,0.2417,0.2428,0.2427,0.2413,0.2403,0.2409,0.2397,0.2368,0.2364,0.2346,0.2342,0.2362,0.2347,0.2351,0.2355,0.2409,0.2419,0.2428,0,0,0,0,0,0,0.242,0.2425,0.2423,0.2419,0.2429,0.2423,0.2427,0.2423,0.2418,0.2414,0.2385,0.238,0.2394,0.2376,0.2357,0.2386,0.2353,0.2356,0.2395,0.2404,0.2412,0.2409,0.2313,0,0,0,0,0,0.2422,0.2428,0.2434,0.2431,0.244,0.2438,0.2441,0.2437,0.2433,0.243,0.2415,0.2405,0.2408,0.2403,0.2399,0.2411,0.2412,0.2425,0.2433,0.2439,0.2437,0.2468,0.2478,0.237,0.237,0.237,0,0,0.2414,0.2421,0.242,0.2432,0.2436,0.245,0.2437,0.2448,0.2458,0.2427,0.2433,0.2432,0.242,0.2435,0.244,0.242,0.2475,0.2444,0.245,0.2443,0.2473,0.2484,0.2493,0.2372,0.2372,0.2371,0,0,0.241,0.2413,0.2422,0.2438,0.2457,0.2463,0.2472,0.2478,0.248,0.2493,0.248,0.2495,0.2486,0.2489,0.2487,0.2538,0.2519,0.254,0.257,0.2601,0.261,0.2618,0.2649,0.2659,0.2539,0.254,0.254,0,0.2402,0.241,0.2426,0.2444,0.2456,0.2472,0.2486,0.2497,0.2503,0.2513,0.2501,0.2521,0.2512,0.254,0.2558,0.2554,0.2569,0.2532,0.2611,0.2618,0.2625,0.2655,0.2665,0.2543,0.2543,0.2542,0.2542,0,0.2408,0.2418,0.2428,0.2456,0.2474,0.2491,0.2516,0.2536,0.2543,0.2552,0.2584,0.2584,0.2593,0.2604,0.2592,0.2643,0.2638,0.262,0.2583,0.2639,0.2668,0.2677,0.2548,0.2547,0.2546,0.2545,0,0,0.2376,0.2423,0.2424,0.2437,0.2483,0.2493,0.2531,0.2564,0.2587,0.2606,0.2635,0.2656,0.2662,0.2662,0.2663,0.2691,0.276,0.2678,0.2678,0.2703,0.2836,0.2838,0.2848,0.2757,0.2759,0.276,0.2842,0,0.2375,0.24,0.243,0.2454,0.2469,0.2509,0.2542,0.2577,0.2608,0.2643,0.2669,0.2695,0.2683,0.2696,0.2726,0.2751,0.2785,0.2739,0.2782,0.2783,0.2774,0.2859,0.2791,0.2859,0.2851,0.2853,0.2854,0,0.2367,0.2388,0.2407,0.2452,0.2464,0.2483,0.2539,0.2573,0.2641,0.2667,0.271,0.273,0.2784,0.2762,0.2835,0.2807,0.2827,0.2844,0.2847,0.283,0.2803,0.2799,0.2876,0.2821,0.2868,0.2867,0.2866,0,0.2323,0.2367,0.2378,0.2393,0.2451,0.247,0.2506,0.2573,0.2609,0.2688,0.2724,0.2782,0.282,0.2856,0.2899,0.2871,0.2981,0.2942,0.2963,0.2963,0.2903,0.2895,0.2923,0.2994,0.2994,0.2994,0.2994,0,0.2302,0.2308,0.2355,0.2359,0.238,0.2437,0.2472,0.2526,0.2607,0.2655,0.2729,0.2782,0.2847,0.2914,0.2932,0.2994,0.3011,0.299,0.2993,0.2925,0.2919,0.2863,0.2827,0.2997,0.2996,0.2996,0.2995,0,0.2244,0.2277,0.229,0.2342,0.2356,0.237,0.2444,0.2477,0.2569,0.2638,0.2668,0.2799,0.2898,0.2964,0.3044,0.3044,0.302,0.3105,0.3027,0.302,0.2965,0.2934,0.2832,0.2742,0.3136,0.3137,0.3137,0,0.2214,0.2216,0.2257,0.2262,0.2282,0.2314,0.2342,0.2438,0.2487,0.2642,0.2678,0.2815,0.2903,0.3049,0.3093,0.3155,0.3048,0.3111,0.3039,0.2976,0.2945,0.2796,0.2716,0.299,0.2989,0.2988,0.2988,0,0.216,0.2176,0.2187,0.22,0.2217,0.2238,0.2293,0.2326,0.245,0.2526,0.265,0.2741,0.2924,0.2989,0.3099,0.3118,0.2974,0.3101,0.3053,0.2857,0.2678,0.2589,0.2923,0.2983,0.2983,0.2984,0.2984,0.2984,0.2117,0.2109,0.2127,0.213,0.2146,0.2155,0.2147,0.2228,0.2293,0.2395,0.2551,0.2662,0.2858,0.3019,0.3017,0.3012,0.2944,0.2946,0.2924,0.2787,0.2661,0.2994,0.3044,0.3045,0.3046,0.3046,0.3047,0,0.2064,0.206,0.2059,0.2051,0.2027,0.2068,0.2104,0.2091,0.2129,0.2285,0.2384,0.259,0.2712,0.2841,0.2946,0.2862,0.2692,0.2791,0.2566,0.2502,0.2834,0.2791,0.2767,0.2767,0.2767,0.2767,0.2767,0.2767,0.204,0.2009,0.2,0.1931,0.1922,0.1865,0.1863,0.1874,0.196,0.2066,0.2187,0.2337,0.265,0.2865,0.2854,0.2765,0.2517,0.2421,0.2373,0.2635,0.2647,0.2657,0.2609,0.2547,0.2547,0.1935,0.1931,0.1928]},{"header":{"parameterUnit":"m.s-1","parameterCategory":2,"la1":30.2991,"la2":30.254,"lo1":-89.0895,"lo2":-89.0444,"dy":0.0017,"dx":0.0017,"nx":28,"ny":28,"refTime":"2025-04-19T21:00:00:Z","depth":"0","parameterNumber":3,"parameterNumberName":"V-component_of_CURRENTS"},"data":[0,0,0,0,0,0,0,0,0,0,0,0,0,0,0,0,0,0,0,0,0,0,0,0,0,0,0,0,0,0,0,0,0,0,0,0,0,0,0,0,0,0,0,0,0,0,0,0,0,0,0,0,0,0,0,0,0,0,0.011,0.011,0,0.0047,0.0047,0.0046,0.0007,0.0007,0.0007,0.0007,-0.0077,-0.0079,-0.0081,0,0,0,0,0,0,0,0,0,0,0,0,0,0.0165,0.0164,0.011,0.011,0.0109,0.0048,0.0046,0.0045,0.0007,0.0007,0.0007,0.0007,-0.0076,-0.0079,-0.0082,0,0,0,0,0,0,0,0,0,0,0,0,0,0.0124,0.0164,0.0111,0.0084,0.0081,0.0048,0.0046,0.0045,0.0007,0.0007,0.0007,0.0007,-0.0076,-0.0079,-0.0082,-0.0101,0,0,-0.0092,-0.0093,0,0,0,0,0,0,0,0,0.0126,0.0122,0.0088,0.0085,0.0082,0.0036,0.0035,-0.0004,0.0007,0.0033,0.0007,0.0007,-0.004,-0.0046,-0.006,-0.0105,-0.0108,-0.0092,-0.0094,-0.0096,-0.0097,0,0,0,0,0,0,0,0.0129,0.0124,0.0084,0.0088,0.0084,0.0064,0.0058,0.0027,-0.0004,0.0031,0.0029,0.0024,-0.0042,-0.0057,-0.0062,-0.0109,-0.0092,-0.0095,-0.0097,-0.0098,-0.017,-0.017,0,0,0,0,0,0,0.0142,0.0127,0.0086,0.0082,0.0106,0.0063,0.0056,0.005,-0.0003,-0.0011,0.0024,0.0022,-0.0051,-0.0058,-0.0065,-0.0076,-0.0096,-0.0099,-0.0101,-0.017,-0.017,-0.017,0,0,0,0,0,0,0.0143,0.0139,0.0088,0.0104,0.0097,0.0063,0.0055,0.0049,0.0038,-0.0008,-0.0016,0.0021,-0.0051,-0.0061,-0.0086,-0.008,-0.01,-0.0103,-0.017,-0.017,-0.017,-0.0107,0,0,0,0,0,0,0.0145,0.0139,0.0139,0.0105,0.0096,0.0077,0.0055,0.0048,0.0036,0.0033,-0.0014,-0.0022,-0.0052,-0.008,-0.0089,-0.0085,-0.0106,-0.0171,-0.017,-0.017,-0.0109,-0.0105,-0.0101,0,0,0,0,0,0.0147,0.015,0.0139,0.0134,0.0097,0.0078,0.0071,0.0045,0.0036,0.0034,0.0004,-0.002,-0.0086,-0.0083,-0.0093,-0.009,-0.0171,-0.017,-0.017,-0.0111,-0.0106,-0.0101,0,0,0,0,0,0,0.0175,0.0145,0.0133,0.0127,0.0107,0.0072,0.0069,0.0051,0.0025,0.0024,-0.0019,-0.003,-0.005,-0.0079,-0.0075,-0.0111,-0.0133,-0.0134,-0.0084,-0.008,-0.0075,-0.0056,-0.0109,0,0,0,0,0,0.0181,0.0174,0.0145,0.0141,0.0134,0.0103,0.0092,0.0076,0.0049,0.0038,0.0005,-0.0029,-0.0059,-0.0075,-0.0106,-0.0125,-0.015,-0.0131,-0.0127,-0.0123,-0.0115,-0.015,-0.0148,-0.017,-0.017,-0.017,0,0,0.019,0.0174,0.017,0.0147,0.0129,0.0127,0.0096,0.0086,0.0084,0.0032,0.002,-0.0016,-0.0061,-0.0081,-0.0093,-0.0104,-0.0129,-0.0123,-0.0119,-0.0113,-0.015,-0.0148,-0.0146,-0.017,-0.017,-0.017,0,0,0.0214,0.0194,0.0199,0.0186,0.0167,0.0148,0.0149,0.0118,0.0105,0.0086,0.005,0.0021,-0.0026,-0.0054,-0.0075,-0.0068,-0.0106,-0.0082,-0.0045,-0.008,-0.0078,-0.0077,-0.0098,-0.0099,-0.0079,-0.0079,-0.0079,0,0.0229,0.0229,0.0199,0.0203,0.0201,0.0163,0.0174,0.0153,0.0118,0.0112,0.0092,0.0027,-0.0011,-0.0035,-0.0034,-0.0058,-0.008,-0.0058,-0.0073,-0.0072,-0.0072,-0.0095,-0.0097,-0.0076,-0.0076,-0.0077,-0.0077,0,0.0255,0.0257,0.0261,0.0254,0.0247,0.025,0.0223,0.0213,0.0191,0.0167,0.014,0.0084,0.0049,0.0028,-0.0002,-0.0019,-0.0036,-0.0062,-0.0081,-0.0066,-0.0091,-0.0094,-0.0072,-0.0073,-0.0074,-0.0074,0,0,0.0289,0.0282,0.0285,0.0296,0.0276,0.0278,0.0275,0.0264,0.027,0.0222,0.0223,0.016,0.0129,0.0103,0.0057,0.0024,0.0004,-0.0013,-0.0016,-0.0025,-0.0062,-0.0069,-0.0074,-0.0026,-0.0026,-0.0027,-0.0077,0,0.0323,0.0348,0.0332,0.0361,0.0374,0.0346,0.0351,0.0334,0.031,0.0298,0.0236,0.0215,0.0157,0.0144,0.0101,0.0031,-0.0003,0.0021,-0.0083,-0.0086,-0.0087,-0.0078,-0.0054,-0.0097,-0.008,-0.0081,-0.0081,0,0.0357,0.0371,0.0403,0.0423,0.0428,0.0434,0.0443,0.0444,0.0412,0.039,0.0351,0.0304,0.0252,0.0199,0.009,0.0108,0.0031,-0.0029,-0.0033,-0.0063,-0.0099,-0.0112,-0.0104,-0.0241,-0.0087,-0.0086,-0.0086,0,0.0402,0.0425,0.0455,0.0459,0.0469,0.048,0.0487,0.0471,0.0489,0.045,0.0454,0.0375,0.0348,0.0239,0.0118,0.0103,-0.0002,-0.004,-0.0119,-0.012,-0.0132,-0.0133,-0.0261,-0.0119,-0.0119,-0.0118,-0.0118,0,0.0445,0.0472,0.0478,0.0495,0.0542,0.0531,0.0571,0.0562,0.0564,0.0595,0.0507,0.0515,0.0356,0.028,0.015,0.0016,0.0021,-0.0106,-0.0134,-0.0109,-0.0108,-0.0254,-0.0342,-0.012,-0.012,-0.012,-0.0119,0,0.0486,0.0488,0.0528,0.055,0.0562,0.0595,0.0637,0.067,0.0656,0.0693,0.069,0.0627,0.0527,0.0368,0.0201,0.0074,-0.0147,-0.0118,-0.0069,-0.0091,-0.0296,-0.038,-0.0552,-0.0617,-0.0212,-0.0212,-0.0213,0,0.0508,0.0531,0.0572,0.0604,0.0614,0.0659,0.0698,0.0711,0.0757,0.077,0.0804,0.0728,0.0697,0.0451,0.0215,-0.0006,-0.0157,-0.0142,-0.0174,-0.0298,-0.0414,-0.0484,-0.0532,-0.0164,-0.0164,-0.0164,-0.0164,0,0.0555,0.0565,0.0598,0.0661,0.0708,0.0768,0.0828,0.0882,0.0908,0.0947,0.0994,0.0976,0.0749,0.055,0.0241,0.0073,-0.0242,-0.0148,-0.0296,-0.04,-0.0467,-0.0544,-0.0135,-0.0164,-0.0164,-0.0164,-0.0164,-0.0164,0.0591,0.0623,0.0664,0.0726,0.0786,0.0869,0.0928,0.1008,0.11,0.1176,0.1154,0.1167,0.0861,0.0453,0.0201,-0.023,-0.0257,-0.0359,-0.0453,-0.0514,-0.0577,-0.0158,-0.0209,-0.021,-0.021,-0.021,-0.021,0,0.0636,0.067,0.0728,0.0801,0.0872,0.0896,0.1012,0.1084,0.1203,0.1302,0.1349,0.1247,0.0856,0.0448,-0.0132,-0.0458,-0.0592,-0.0648,-0.0748,-0.0784,-0.0421,-0.0417,-0.0492,-0.0492,-0.0492,-0.0492,-0.0492,-0.0491,0.0663,0.0718,0.0741,0.0855,0.0912,0.1015,0.1084,0.1201,0.1307,0.1438,0.1495,0.1517,0.1241,0.0139,-0.0587,-0.0759,-0.1002,-0.1067,-0.1194,-0.095,-0.093,-0.0911,-0.0928,-0.1108,-0.1109,-0.1499,-0.1503,-0.1506]}],[{"header":{"parameterUnit":"m.s-1","parameterCategory":2,"la1":30.2991,"la2":30.254,"lo1":-89.0895,"lo2":-89.0444,"dy":0.0017,"dx":0.0017,"nx":28,"ny":28,"refTime":"2025-04-19T21:00:00:Z","depth":"2","parameterNumber":2,"parameterNumberName":"U-component_of_CURRENTS"},"data":[0,0,0,0,0,0,0,0,0,0,0,0,0,0,0,0,0,0,0,0,0,0,0,0,0,0,0,0,0,0,0,0,0,0,0,0,0,0,0,0,0,0,0,0,0,0,0,0,0,0,0,0,0,0,0,0,0,0,0.2252,0.2252,0,0.2261,0.2261,0.2261,0.2247,0.2247,0.2247,0.2246,0.2224,0.2224,0.2224,0,0,0,0,0,0,0,0,0,0,0,0,0,0.2219,0.2219,0.2252,0.2252,0.2253,0.2261,0.2261,0.2261,0.2247,0.2247,0.2247,0.2246,0.2225,0.2224,0.2224,0,0,0,0,0,0,0,0,0,0,0,0,0,0.2229,0.222,0.2252,0.2249,0.2249,0.2261,0.2261,0.2261,0.2247,0.2247,0.2247,0.2246,0.2225,0.2224,0.2224,0.2228,0,0,0.2222,0.2222,0,0,0,0,0,0,0,0,0.2228,0.223,0.2249,0.2249,0.2249,0.2255,0.2241,0.2249,0.2247,0.2245,0.2246,0.2246,0.2234,0.2232,0.2232,0.2227,0.2226,0.2222,0.2222,0.2221,0.2221,0,0,0,0,0,0,0,0.2228,0.2229,0.2253,0.2249,0.2249,0.2246,0.2246,0.2243,0.2239,0.2245,0.2245,0.225,0.2233,0.2232,0.2231,0.2226,0.2222,0.2222,0.2221,0.2221,0.2268,0.227,0,0,0,0,0,0,0.2232,0.2229,0.2253,0.2254,0.224,0.2247,0.2247,0.2251,0.224,0.2238,0.225,0.2249,0.2233,0.2232,0.223,0.227,0.2221,0.2221,0.2221,0.2267,0.2269,0.227,0,0,0,0,0,0,0.2231,0.2234,0.2252,0.2243,0.2246,0.2248,0.2252,0.2252,0.2261,0.2244,0.2242,0.2261,0.2233,0.2231,0.2244,0.2267,0.2221,0.222,0.2265,0.2267,0.227,0.2326,0,0,0,0,0,0,0.223,0.2234,0.224,0.2244,0.2246,0.2269,0.2253,0.2252,0.2265,0.2264,0.2253,0.225,0.2233,0.2245,0.2243,0.2266,0.222,0.2263,0.2266,0.2269,0.2322,0.233,0.2337,0,0,0,0,0,0.2229,0.2237,0.2241,0.2244,0.2255,0.227,0.2272,0.227,0.2266,0.2275,0.2273,0.2251,0.2262,0.2245,0.2243,0.2266,0.2262,0.2265,0.2269,0.2319,0.2328,0.2337,0,0,0,0,0,0,0.2219,0.2237,0.2241,0.2252,0.2267,0.2269,0.2278,0.228,0.2285,0.2286,0.2267,0.2264,0.2286,0.2272,0.2254,0.2291,0.226,0.2263,0.2299,0.2308,0.2315,0.2313,0.2219,0,0,0,0,0,0.2223,0.2237,0.2252,0.2263,0.2273,0.228,0.2287,0.229,0.2295,0.2297,0.2291,0.229,0.2298,0.23,0.2301,0.2317,0.2318,0.2334,0.2341,0.2347,0.2346,0.2376,0.2386,0.2282,0.2282,0.2282,0,0,0.222,0.2234,0.224,0.2263,0.2273,0.229,0.2283,0.2302,0.2317,0.2294,0.2312,0.2316,0.231,0.2332,0.234,0.2322,0.2381,0.2352,0.2357,0.2352,0.2381,0.2391,0.2399,0.2285,0.2284,0.2284,0,0,0.2223,0.2239,0.2253,0.2271,0.2297,0.2305,0.2316,0.2331,0.234,0.236,0.2355,0.2375,0.2377,0.2383,0.2385,0.2435,0.2421,0.2439,0.247,0.25,0.2508,0.2515,0.2544,0.2553,0.244,0.244,0.244,0,0.222,0.2239,0.2259,0.228,0.2295,0.2315,0.2333,0.2349,0.2366,0.238,0.2373,0.2404,0.2401,0.2433,0.2453,0.245,0.2464,0.2435,0.2509,0.2516,0.2522,0.2549,0.2559,0.2443,0.2443,0.2443,0.2442,0,0.2234,0.2253,0.2265,0.2299,0.2319,0.234,0.2368,0.2392,0.2407,0.242,0.246,0.2465,0.2482,0.2493,0.2486,0.2537,0.2533,0.2516,0.2484,0.2536,0.2561,0.257,0.2448,0.2447,0.2446,0.2445,0,0,0.2212,0.2264,0.2267,0.2284,0.2332,0.2345,0.2387,0.2424,0.245,0.2477,0.2511,0.2539,0.2548,0.2552,0.2557,0.2584,0.265,0.2574,0.2574,0.2597,0.2722,0.2707,0.2715,0.2649,0.265,0.2651,0.2725,0,0.2216,0.2248,0.2279,0.231,0.2328,0.2369,0.2404,0.2443,0.2476,0.2517,0.2546,0.2579,0.2569,0.2587,0.2616,0.2642,0.2674,0.2631,0.2671,0.2672,0.2649,0.2725,0.2521,0.2569,0.2734,0.2735,0.2736,0,0.2215,0.2238,0.2266,0.2316,0.2329,0.2353,0.2412,0.2448,0.2518,0.2548,0.2593,0.2616,0.2672,0.2651,0.2722,0.2698,0.2716,0.2731,0.2734,0.2703,0.2674,0.2541,0.2579,0.2751,0.275,0.2749,0.2748,0,0.2177,0.2227,0.2246,0.2263,0.2324,0.2347,0.2386,0.2454,0.2491,0.2572,0.261,0.267,0.271,0.2744,0.2784,0.276,0.286,0.2824,0.2828,0.2827,0.2651,0.2631,0.2873,0.2873,0.2873,0.2873,0.2872,0,0.2162,0.2176,0.2228,0.2236,0.2266,0.2322,0.2364,0.2419,0.2499,0.2547,0.2621,0.2671,0.2737,0.2799,0.2815,0.2863,0.2887,0.2851,0.2852,0.2667,0.265,0.2795,0.2785,0.2875,0.2875,0.2874,0.2874,0,0.2113,0.2149,0.217,0.2228,0.2246,0.2266,0.2343,0.2377,0.2469,0.2538,0.2569,0.2691,0.2782,0.2843,0.2916,0.2907,0.2947,0.2952,0.2738,0.2713,0.2883,0.2875,0.2962,0.2962,0.2962,0.2962,0.2963,0,0.2089,0.2096,0.2145,0.2155,0.218,0.222,0.2251,0.2347,0.2393,0.254,0.2574,0.2701,0.2774,0.2898,0.2918,0.2965,0.2983,0.2787,0.27,0.2904,0.2896,0.2888,0.288,0.249,0.2487,0.2484,0.2481,0,0.2043,0.2063,0.2079,0.2101,0.2125,0.215,0.2208,0.2238,0.2357,0.2427,0.2536,0.2611,0.2759,0.2734,0.2817,0.2806,0.2764,0.2728,0.2999,0.251,0.2468,0.2458,0.2463,0.2454,0.2457,0.2459,0.246,0.2461,0.2005,0.2003,0.2026,0.2038,0.2061,0.2071,0.2066,0.214,0.2196,0.2279,0.2417,0.2467,0.2548,0.2581,0.2533,0.2505,0.2687,0.2558,0.2563,0.2572,0.2514,0.2477,0.2453,0.2456,0.2458,0.246,0.2462,0,0.1954,0.1958,0.1964,0.1965,0.1947,0.1993,0.2026,0.2006,0.203,0.2143,0.2218,0.2113,0.2139,0.2205,0.214,0.2176,0.2107,0.2074,0.1953,0.1986,0.2013,0.192,0.1705,0.1702,0.1699,0.1696,0,0,0.193,0.1908,0.1904,0.1848,0.1847,0.1799,0.1795,0.179,0.1841,0.184,0.186,0.2043,0.2162,0.1892,0.189,0.1779,0.185,0.1713,0.2335,0.2226,0.2248,0.2326,0.2227,0,0,0,0,0]},{"header":{"parameterUnit":"m.s-1","parameterCategory":2,"la1":30.2991,"la2":30.254,"lo1":-89.0895,"lo2":-89.0444,"dy":0.0017,"dx":0.0017,"nx":28,"ny":28,"refTime":"2025-04-19T21:00:00:Z","depth":"2","parameterNumber":3,"parameterNumberName":"V-component_of_CURRENTS"},"data":[0,0,0,0,0,0,0,0,0,0,0,0,0,0,0,0,0,0,0,0,0,0,0,0,0,0,0,0,0,0,0,0,0,0,0,0,0,0,0,0,0,0,0,0,0,0,0,0,0,0,0,0,0,0,0,0,0,0,-0.0005,-0.0006,0,-0.0056,-0.0057,-0.0057,-0.0088,-0.0088,-0.0088,-0.0088,-0.0159,-0.0161,-0.0163,0,0,0,0,0,0,0,0,0,0,0,0,0,0.0026,0.0026,-0.0005,-0.0006,-0.0006,-0.0056,-0.0057,-0.0058,-0.0088,-0.0088,-0.0088,-0.0088,-0.0159,-0.0161,-0.0163,0,0,0,0,0,0,0,0,0,0,0,0,0,-0.0004,0.0026,-0.0005,-0.0026,-0.0028,-0.0056,-0.0057,-0.0058,-0.0088,-0.0088,-0.0088,-0.0088,-0.0158,-0.0161,-0.0163,-0.0181,0,0,-0.0172,-0.0173,0,0,0,0,0,0,0,0,-0.0002,-0.0005,-0.0023,-0.0025,-0.0027,-0.0064,-0.0072,-0.0099,-0.0088,-0.0067,-0.0088,-0.0088,-0.0128,-0.0134,-0.0145,-0.0184,-0.0187,-0.0172,-0.0174,-0.0175,-0.0176,0,0,0,0,0,0,0,0.0,-0.0003,-0.0027,-0.0023,-0.0026,-0.0047,-0.0051,-0.0077,-0.0098,-0.0069,-0.0071,-0.0074,-0.013,-0.0142,-0.0147,-0.0188,-0.0172,-0.0175,-0.0176,-0.0178,-0.024,-0.024,0,0,0,0,0,0,0.0012,-0.0001,-0.0025,-0.0028,-0.0013,-0.0047,-0.0052,-0.0054,-0.0098,-0.0104,-0.0074,-0.0075,-0.0137,-0.0144,-0.015,-0.0157,-0.0175,-0.0178,-0.018,-0.024,-0.024,-0.024,0,0,0,0,0,0,0.0012,0.001,-0.0023,-0.0015,-0.002,-0.0047,-0.0049,-0.0055,-0.0063,-0.0101,-0.0108,-0.0076,-0.0138,-0.0146,-0.0166,-0.016,-0.0179,-0.0182,-0.024,-0.024,-0.024,-0.0181,0,0,0,0,0,0,0.0014,0.0011,0.0013,-0.0014,-0.002,-0.0031,-0.0049,-0.0056,-0.0064,-0.0066,-0.0105,-0.0112,-0.0138,-0.0162,-0.0169,-0.0165,-0.0184,-0.024,-0.024,-0.024,-0.0183,-0.0179,-0.0176,0,0,0,0,0,0.0015,0.0023,0.0013,0.001,-0.0016,-0.003,-0.0035,-0.0056,-0.0064,-0.0064,-0.009,-0.0111,-0.0167,-0.0164,-0.0173,-0.0169,-0.024,-0.024,-0.024,-0.0185,-0.018,-0.0176,0,0,0,0,0,0,0.0043,0.002,0.0009,0.001,-0.0006,-0.0035,-0.0035,-0.0051,-0.0072,-0.0072,-0.011,-0.0119,-0.0136,-0.0161,-0.0157,-0.0188,-0.0207,-0.0209,-0.0163,-0.0158,-0.0155,-0.0136,-0.0186,0,0,0,0,0,0.0049,0.0046,0.0022,0.0024,0.0019,-0.0008,-0.0016,-0.0029,-0.0051,-0.006,-0.0088,-0.0118,-0.0143,-0.0156,-0.0184,-0.0199,-0.0223,-0.0204,-0.02,-0.0196,-0.0188,-0.0222,-0.022,-0.024,-0.024,-0.024,0,0,0.006,0.0048,0.0047,0.003,0.0015,0.0015,-0.0013,-0.0019,-0.0018,-0.0065,-0.0073,-0.0106,-0.0145,-0.0161,-0.0171,-0.0181,-0.0203,-0.0196,-0.0193,-0.0186,-0.0221,-0.0219,-0.0217,-0.024,-0.024,-0.024,0,0,0.0087,0.0072,0.008,0.0069,0.0053,0.0037,0.0038,0.0013,0.0002,-0.0013,-0.0045,-0.0071,-0.0111,-0.0136,-0.0154,-0.0147,-0.0182,-0.0159,-0.0124,-0.0157,-0.0155,-0.0154,-0.0176,-0.0177,-0.0156,-0.0156,-0.0156,0,0.0103,0.0108,0.0081,0.0088,0.0087,0.0051,0.0065,0.0047,0.0018,0.0012,-0.0006,-0.0063,-0.0097,-0.0116,-0.0115,-0.0137,-0.0159,-0.0135,-0.0151,-0.015,-0.015,-0.0173,-0.0175,-0.0154,-0.0154,-0.0154,-0.0154,0,0.0134,0.0139,0.0145,0.014,0.0135,0.0141,0.0116,0.0109,0.0089,0.0067,0.0043,-0.0007,-0.0038,-0.0058,-0.0085,-0.01,-0.0117,-0.0141,-0.0158,-0.0144,-0.017,-0.0173,-0.0149,-0.015,-0.0151,-0.0152,0,0,0.0172,0.0168,0.0171,0.0181,0.0165,0.0168,0.0169,0.0159,0.0166,0.0123,0.0124,0.0069,0.0038,0.0015,-0.0027,-0.0058,-0.0078,-0.0093,-0.0097,-0.0107,-0.0143,-0.0152,-0.0156,-0.0107,-0.0107,-0.0107,-0.0159,0,0.0207,0.0234,0.022,0.025,0.0264,0.0238,0.0245,0.023,0.0207,0.0197,0.0139,0.012,0.0067,0.0054,0.0014,-0.0053,-0.0085,-0.0061,-0.0162,-0.0165,-0.0167,-0.016,-0.0136,-0.018,-0.0163,-0.0163,-0.0164,0,0.0243,0.0257,0.0291,0.0311,0.0315,0.0324,0.0333,0.0335,0.0306,0.0285,0.0249,0.0205,0.0157,0.0107,0.0003,0.002,-0.0053,-0.011,-0.0114,-0.0143,-0.0179,-0.0194,-0.0187,-0.017,-0.0169,-0.0169,-0.0168,0,0.0286,0.0311,0.0341,0.0345,0.0356,0.0369,0.0376,0.0362,0.0379,0.0343,0.0346,0.0272,0.0246,0.0143,0.0027,0.0015,-0.0089,-0.0124,-0.0201,-0.0202,-0.0212,-0.0213,-0.0198,-0.0198,-0.0198,-0.0198,-0.0198,0,0.0328,0.0354,0.0363,0.038,0.0426,0.0416,0.0456,0.0448,0.0451,0.0479,0.0398,0.0403,0.0254,0.0179,0.0057,-0.0073,-0.0068,-0.0188,-0.0216,-0.019,-0.0189,-0.0207,-0.0207,-0.02,-0.02,-0.0199,-0.0199,0,0.0367,0.037,0.0411,0.0433,0.0445,0.0478,0.0519,0.055,0.0537,0.0571,0.0568,0.0506,0.0408,0.0258,0.0097,-0.0022,-0.0154,-0.0205,-0.0158,-0.0179,-0.0254,-0.0251,-0.0295,-0.0295,-0.0296,-0.0297,-0.0297,0,0.0388,0.0411,0.0453,0.0483,0.0494,0.0538,0.0576,0.0589,0.063,0.064,0.067,0.0596,0.0558,0.0321,0.0101,-0.0108,-0.0145,-0.0231,-0.0258,-0.0241,-0.0264,-0.026,-0.0256,-0.0248,-0.0248,-0.0248,-0.0248,0,0.043,0.0441,0.0474,0.0536,0.0581,0.0639,0.0695,0.0744,0.0768,0.0802,0.0837,0.0813,0.0595,0.0397,0.0107,-0.0041,-0.0197,-0.0238,-0.0235,-0.0224,-0.0201,-0.0222,-0.0219,-0.0248,-0.0248,-0.0248,-0.0248,-0.0248,0.0461,0.0491,0.0532,0.0592,0.0652,0.073,0.0785,0.0856,0.0936,0.0995,0.0969,0.0941,0.0704,0.035,0.0087,-0.0193,-0.0185,-0.0286,-0.0285,-0.0284,-0.0266,-0.0245,-0.0296,-0.0297,-0.0297,-0.0297,-0.0297,0,0.0496,0.0529,0.0587,0.0657,0.0727,0.0755,0.0861,0.092,0.1022,0.1087,0.1117,0.0905,0.0684,0.0406,-0.0001,-0.0248,-0.0273,-0.0329,-0.0303,-0.0301,-0.03,-0.0282,-0.0318,-0.0318,-0.0319,-0.032,0,0,0.0514,0.0566,0.0591,0.0701,0.0759,0.0857,0.0921,0.1016,0.109,0.115,0.1152,0.1124,0.0792,0.0497,0.0157,-0.0079,-0.0136,-0.013,-0.0086,-0.0014,-0.0009,-0.0247,-0.0214,0,0,0,0,0]}],[{"header":{"parameterUnit":"m.s-1","parameterCategory":2,"la1":30.2991,"la2":30.254,"lo1":-89.0895,"lo2":-89.0444,"dy":0.0017,"dx":0.0017,"nx":28,"ny":28,"refTime":"2025-04-19T21:00:00:Z","depth":"4","parameterNumber":2,"parameterNumberName":"U-component_of_CURRENTS"},"data":[0,0,0,0,0,0,0,0,0,0,0,0,0,0,0,0,0,0,0,0,0,0,0,0,0,0,0,0,0,0,0,0,0,0,0,0,0,0,0,0,0,0,0,0,0,0,0,0,0,0,0,0,0,0,0,0,0,0,0.1478,0.1479,0,0.1542,0.1542,0.1543,0.1593,0.1594,0.1595,0.1596,0.1657,0.1658,0.1659,0,0,0,0,0,0,0,0,0,0,0,0,0,0.1374,0.1376,0.1478,0.1479,0.148,0.1542,0.1542,0.1543,0.1593,0.1594,0.1595,0.1596,0.1656,0.1658,0.1659,0,0,0,0,0,0,0,0,0,0,0,0,0,0.1424,0.1376,0.1478,0.1514,0.1518,0.1542,0.1542,0.1543,0.1593,0.1594,0.1595,0.1596,0.1656,0.1657,0.1659,0.1647,0,0,0.1663,0.1664,0,0,0,0,0,0,0,0,0.1422,0.1428,0.1508,0.1512,0.1516,0.1563,0.1528,0.1578,0.1593,0.1562,0.1596,0.1597,0.1626,0.163,0.1636,0.165,0.1652,0.1663,0.1664,0.1665,0.1665,0,0,0,0,0,0,0,0.1418,0.1425,0.1501,0.1509,0.1514,0.1519,0.1527,0.1538,0.1586,0.1565,0.157,0.158,0.1628,0.1635,0.1638,0.1653,0.1663,0.1665,0.1666,0.1666,0.176,0.1762,0,0,0,0,0,0,0.1415,0.1422,0.1499,0.1503,0.1473,0.152,0.1529,0.1545,0.1586,0.1594,0.1579,0.1582,0.1632,0.1636,0.164,0.1719,0.1665,0.1666,0.1667,0.1759,0.1761,0.1762,0,0,0,0,0,0,0.1413,0.1421,0.1497,0.1465,0.1476,0.1521,0.1538,0.1546,0.1586,0.1596,0.1604,0.1615,0.1633,0.1638,0.1683,0.1719,0.1667,0.1668,0.1757,0.1759,0.1762,0.1818,0,0,0,0,0,0,0.1409,0.142,0.1444,0.1465,0.1477,0.1531,0.1538,0.1546,0.159,0.1595,0.1629,0.1634,0.1634,0.1681,0.1685,0.172,0.1669,0.1755,0.1758,0.1761,0.1815,0.1823,0.1829,0,0,0,0,0,0.1405,0.1429,0.1445,0.1455,0.1505,0.1532,0.1539,0.1572,0.1591,0.1612,0.1641,0.1635,0.1703,0.1683,0.1687,0.1724,0.1753,0.1757,0.176,0.1811,0.1821,0.1829,0,0,0,0,0,0,0.1399,0.1437,0.1455,0.1491,0.1521,0.1542,0.1571,0.159,0.1628,0.1645,0.1653,0.166,0.1712,0.171,0.1688,0.176,0.1728,0.1733,0.1766,0.1775,0.1782,0.178,0.1671,0,0,0,0,0,0.1407,0.1438,0.1469,0.1502,0.1519,0.1551,0.1573,0.1596,0.1626,0.1646,0.167,0.1698,0.1724,0.1744,0.1762,0.1799,0.1799,0.1827,0.1834,0.1841,0.1843,0.1873,0.1883,0.1774,0.1774,0.1774,0,0,0.1414,0.1441,0.146,0.1503,0.1531,0.156,0.1568,0.1611,0.1643,0.1645,0.1705,0.1725,0.1739,0.1785,0.1808,0.1792,0.1874,0.1845,0.185,0.1849,0.1878,0.1888,0.1897,0.1777,0.1776,0.1776,0,0,0.143,0.1469,0.1496,0.1523,0.1572,0.1589,0.1609,0.165,0.1682,0.1731,0.1746,0.1789,0.1827,0.1846,0.1858,0.1917,0.1911,0.193,0.1969,0.1999,0.2008,0.2016,0.2036,0.2045,0.1936,0.1936,0.1936,0,0.1439,0.1477,0.1508,0.1538,0.1568,0.1605,0.1637,0.167,0.1723,0.1753,0.1762,0.1838,0.1853,0.1905,0.1932,0.1934,0.1948,0.1933,0.2008,0.2016,0.2023,0.2042,0.2051,0.1939,0.1939,0.1938,0.1938,0,0.1464,0.1507,0.1527,0.1578,0.161,0.1649,0.1691,0.1737,0.1779,0.1809,0.1881,0.1907,0.1951,0.1968,0.197,0.2034,0.2028,0.2012,0.1982,0.2037,0.2054,0.2062,0.1944,0.1942,0.1941,0.1941,0,0,0.145,0.1528,0.154,0.1571,0.1638,0.1662,0.1725,0.1783,0.1829,0.1887,0.1946,0.2,0.2024,0.2039,0.2055,0.2085,0.2151,0.2079,0.2079,0.2094,0.2221,0.2097,0.2094,0.2154,0.2156,0.2157,0.2215,0,0.1464,0.1521,0.1561,0.1622,0.1653,0.171,0.1762,0.1823,0.1877,0.1942,0.1989,0.2049,0.2048,0.2084,0.2116,0.2145,0.2176,0.2137,0.217,0.217,0.2049,0.21,0.2163,0.2221,0.2223,0.2225,0.2226,0,0.1469,0.1509,0.1569,0.1647,0.1668,0.1713,0.1802,0.1854,0.1947,0.1994,0.2061,0.2098,0.217,0.2153,0.2229,0.2208,0.2223,0.2235,0.2237,0.2104,0.2062,0.2155,0.2241,0.224,0.2239,0.2238,0.2237,0,0.1429,0.1512,0.1561,0.1589,0.1681,0.1729,0.1786,0.1877,0.1928,0.2035,0.2084,0.2162,0.2217,0.2251,0.2287,0.227,0.2355,0.2326,0.2226,0.2217,0.2286,0.2276,0.2371,0.2371,0.2371,0.2371,0.2371,0,0.1412,0.1455,0.1553,0.1579,0.1644,0.1718,0.1795,0.1864,0.1964,0.2021,0.2112,0.2159,0.2247,0.2302,0.2315,0.2299,0.238,0.2238,0.2225,0.2309,0.2302,0.2292,0.2282,0.2373,0.2372,0.2372,0.2372,0,0.1358,0.1425,0.1484,0.159,0.1627,0.1676,0.1793,0.184,0.1951,0.2028,0.2069,0.2186,0.2253,0.2319,0.2382,0.2323,0.2326,0.2299,0.2399,0.239,0.216,0.2153,0.2181,0.2177,0.2174,0.2171,0.2169,0,0.1332,0.136,0.1477,0.1513,0.1568,0.165,0.1703,0.1822,0.1869,0.2018,0.2044,0.216,0.222,0.2209,0.2288,0.2307,0.2281,0.2264,0.2194,0.2157,0.2143,0.214,0.2137,0.2163,0.2163,0.2162,0.2161,0,0.1279,0.1337,0.1385,0.146,0.1524,0.1578,0.1665,0.1684,0.1814,0.193,0.1967,0.2004,0.2079,0.2123,0.2163,0.2168,0.2262,0.2229,0.2235,0.2169,0.2137,0.2124,0.2126,0.215,0.2151,0.2152,0.2153,0,0.1243,0.1263,0.1336,0.1389,0.1462,0.1484,0.1538,0.1589,0.1648,0.1806,0.1814,0.1936,0.205,0.2053,0.2086,0.2089,0.205,0.1973,0.1991,0.2005,0.1922,0.1853,0.1773,0,0,0,0,0,0.1197,0.121,0.1256,0.1302,0.1368,0.141,0.1502,0.1556,0.1676,0.1657,0.1728,0.1785,0.1831,0.1899,0.1868,0.2019,0.2066,0.1974,0.1988,0.2086,0.21,0.2018,0,0,0,0,0,0,0.1165,0.1211,0.1224,0.1217,0.1232,0.1287,0.1339,0.142,0.1416,0.1545,0.1581,0.1683,0.176,0.1833,0.1835,0.1857,0.183,0.2057,0.2052,0.2079,0.2091,0.2101,0.2023,0,0,0,0,0]},{"header":{"parameterUnit":"m.s-1","parameterCategory":2,"la1":30.2991,"la2":30.254,"lo1":-89.0895,"lo2":-89.0444,"dy":0.0017,"dx":0.0017,"nx":28,"ny":28,"refTime":"2025-04-19T21:00:00:Z","depth":"4","parameterNumber":3,"parameterNumberName":"V-component_of_CURRENTS"},"data":[0,0,0,0,0,0,0,0,0,0,0,0,0,0,0,0,0,0,0,0,0,0,0,0,0,0,0,0,0,0,0,0,0,0,0,0,0,0,0,0,0,0,0,0,0,0,0,0,0,0,0,0,0,0,0,0,0,0,-0.001,-0.001,0,-0.0043,-0.0044,-0.0044,-0.0067,-0.0067,-0.0067,-0.0068,-0.012,-0.0121,-0.0122,0,0,0,0,0,0,0,0,0,0,0,0,0,0.0008,0.0008,-0.001,-0.001,-0.0011,-0.0043,-0.0044,-0.0044,-0.0067,-0.0067,-0.0067,-0.0068,-0.0119,-0.0121,-0.0122,0,0,0,0,0,0,0,0,0,0,0,0,0,-0.0011,0.0008,-0.001,-0.0025,-0.0027,-0.0043,-0.0044,-0.0045,-0.0067,-0.0067,-0.0067,-0.0068,-0.0119,-0.0121,-0.0123,-0.0132,0,0,-0.0129,-0.0129,0,0,0,0,0,0,0,0,-0.001,-0.0012,-0.0023,-0.0024,-0.0026,-0.0051,-0.0057,-0.0074,-0.0067,-0.0053,-0.0068,-0.0068,-0.0098,-0.0101,-0.0108,-0.0134,-0.0136,-0.0129,-0.013,-0.0131,-0.0131,0,0,0,0,0,0,0,-0.0008,-0.001,-0.0024,-0.0023,-0.0025,-0.004,-0.0042,-0.006,-0.0075,-0.0054,-0.0056,-0.0058,-0.0099,-0.0106,-0.011,-0.0137,-0.0129,-0.013,-0.0132,-0.0132,-0.0176,-0.0176,0,0,0,0,0,0,-0.0001,-0.0009,-0.0023,-0.0025,-0.0017,-0.004,-0.0043,-0.0043,-0.0074,-0.0079,-0.0058,-0.0059,-0.0103,-0.0107,-0.0112,-0.0117,-0.0131,-0.0133,-0.0134,-0.0176,-0.0176,-0.0176,0,0,0,0,0,0,-0.0001,-0.0002,-0.0022,-0.0017,-0.0021,-0.004,-0.004,-0.0044,-0.005,-0.0077,-0.0082,-0.006,-0.0103,-0.0109,-0.0124,-0.0119,-0.0133,-0.0135,-0.0176,-0.0176,-0.0176,-0.0132,0,0,0,0,0,0,0.0,-0.0002,-0.0,-0.0017,-0.0021,-0.0025,-0.004,-0.0044,-0.0051,-0.0053,-0.0081,-0.0086,-0.0104,-0.0121,-0.0126,-0.0122,-0.0137,-0.0176,-0.0176,-0.0176,-0.0133,-0.013,-0.0128,0,0,0,0,0,0.0001,0.0009,0.0,-0.0001,-0.0018,-0.0025,-0.0028,-0.0043,-0.0051,-0.005,-0.007,-0.0085,-0.0124,-0.0122,-0.0128,-0.0125,-0.0176,-0.0176,-0.0176,-0.0135,-0.0131,-0.0128,0,0,0,0,0,0,0.0022,0.0007,-0.0003,0.0001,-0.001,-0.0028,-0.0028,-0.004,-0.0055,-0.0057,-0.0084,-0.009,-0.0102,-0.0121,-0.0118,-0.0139,-0.0154,-0.0155,-0.012,-0.0117,-0.0114,-0.0098,-0.0138,0,0,0,0,0,0.0026,0.0025,0.0009,0.0012,0.0008,-0.0011,-0.0016,-0.0026,-0.0041,-0.0048,-0.0067,-0.0089,-0.0107,-0.0117,-0.0136,-0.0146,-0.0166,-0.0149,-0.0147,-0.0144,-0.0136,-0.0165,-0.0164,-0.0177,-0.0177,-0.0177,0,0,0.0035,0.0027,0.0027,0.0016,0.0006,0.0009,-0.0014,-0.0017,-0.0015,-0.0051,-0.0055,-0.008,-0.0108,-0.0119,-0.0126,-0.0133,-0.0152,-0.0144,-0.0141,-0.0135,-0.0165,-0.0164,-0.0163,-0.0177,-0.0177,-0.0177,0,0,0.0058,0.0047,0.0054,0.0047,0.0035,0.0025,0.0025,0.0008,-0.0,-0.001,-0.0035,-0.0055,-0.0082,-0.01,-0.0113,-0.0107,-0.0136,-0.0117,-0.0089,-0.0117,-0.0116,-0.0116,-0.0139,-0.014,-0.0115,-0.0115,-0.0115,0,0.007,0.0076,0.0056,0.0063,0.0063,0.0035,0.0048,0.0035,0.0015,0.0011,-0.0004,-0.0046,-0.0072,-0.0084,-0.0083,-0.01,-0.012,-0.0097,-0.0113,-0.0113,-0.0113,-0.0136,-0.0139,-0.0113,-0.0113,-0.0113,-0.0113,0,0.0097,0.0102,0.0108,0.0106,0.0104,0.011,0.0093,0.0087,0.0071,0.0055,0.0037,-0.0001,-0.0024,-0.004,-0.0059,-0.0072,-0.0087,-0.0106,-0.0118,-0.0109,-0.0134,-0.0138,-0.011,-0.011,-0.0111,-0.0111,0,0,0.0125,0.0126,0.0129,0.0138,0.0128,0.0132,0.0136,0.0131,0.0136,0.0103,0.0104,0.0063,0.0037,0.002,-0.0013,-0.0039,-0.0061,-0.0068,-0.0071,-0.0084,-0.012,-0.0121,-0.0125,-0.0083,-0.0083,-0.0084,-0.0138,0,0.0152,0.0176,0.0169,0.0196,0.0207,0.0189,0.0198,0.0189,0.0171,0.0163,0.0117,0.0104,0.0061,0.0051,0.0017,-0.0039,-0.0068,-0.0044,-0.0133,-0.0135,-0.0132,-0.0128,-0.0085,-0.014,-0.0141,-0.0142,-0.0142,0,0.0179,0.0192,0.0223,0.0242,0.0247,0.0259,0.0268,0.0273,0.0251,0.0235,0.0206,0.0171,0.0131,0.0091,0.0002,0.0019,-0.0044,-0.0093,-0.0096,-0.0113,-0.0142,-0.0154,-0.0149,-0.0148,-0.0148,-0.0147,-0.0147,0,0.0206,0.0232,0.0258,0.0264,0.0279,0.0292,0.0301,0.0294,0.0309,0.0281,0.0283,0.0223,0.02,0.0114,0.0016,0.0008,-0.0085,-0.0111,-0.0172,-0.0173,-0.0175,-0.0176,-0.0176,-0.0176,-0.0175,-0.0175,-0.0175,0,0.0234,0.0257,0.0274,0.0288,0.0328,0.0327,0.0362,0.0359,0.0364,0.0386,0.0324,0.0323,0.0205,0.0139,0.0038,-0.0071,-0.0071,-0.0162,-0.0185,-0.0156,-0.0153,-0.0178,-0.0178,-0.0177,-0.0177,-0.0176,-0.0176,0,0.0255,0.0264,0.0299,0.0326,0.0341,0.0369,0.0411,0.0437,0.0432,0.0457,0.0456,0.0401,0.0312,0.0192,0.0056,-0.0033,-0.0143,-0.0185,-0.0133,-0.0153,-0.0219,-0.0216,-0.0257,-0.0257,-0.0257,-0.0258,-0.0258,0,0.0264,0.0284,0.0329,0.0357,0.0371,0.0412,0.0446,0.0466,0.0496,0.0505,0.0523,0.0458,0.04,0.0219,0.0077,-0.0112,-0.0146,-0.0206,-0.0225,-0.0208,-0.0227,-0.0223,-0.022,-0.0259,-0.0259,-0.0259,-0.0259,0,0.0284,0.03,0.0329,0.0386,0.0429,0.0481,0.0529,0.0561,0.0585,0.0588,0.0583,0.049,0.039,0.0234,0.009,-0.005,-0.0169,-0.0211,-0.0212,-0.023,-0.0211,-0.0229,-0.0225,-0.026,-0.026,-0.026,-0.026,0,0.0297,0.032,0.0358,0.0409,0.047,0.0529,0.0554,0.0593,0.0626,0.0638,0.0636,0.0524,0.0464,0.0266,0.0133,-0.0003,-0.0049,-0.0106,-0.0113,-0.0113,-0.0063,-0.0018,-0.0021,0,0,0,0,0,0.0305,0.0329,0.0379,0.0435,0.05,0.0534,0.0603,0.0624,0.0653,0.0662,0.0653,0.0561,0.0372,0.0292,0.0158,0.0102,-0.0087,-0.0063,-0.016,-0.0267,-0.0266,-0.0232,0,0,0,0,0,0,0.0306,0.0349,0.0373,0.0449,0.0491,0.0564,0.0609,0.0632,0.0638,0.0648,0.0557,0.0514,0.0334,0.0449,0.0151,0.011,0.0027,-0.0149,-0.0152,-0.0268,-0.0267,-0.0266,-0.023,0,0,0,0,0]}]]